TimeCST,TemperatureF,Dew PointF,Humidity,Sea Level PressureIn,VisibilityMPH,Wind Direction,Wind SpeedMPH,Gust SpeedMPH,PrecipitationIn,Events,Conditions,WindDirDegrees,DateUTC
12:56 AM,19.9,15.1,81,30.14,10.0,Calm,Calm,-,N/A,,Partly Cloudy,0,2012-11-26 06:56:00
1:56 AM,19.9,15.1,81,30.15,9.0,Calm,Calm,-,N/A,,Mostly Cloudy,0,2012-11-26 07:56:00
2:56 AM,24.1,19.0,81,30.17,9.0,Calm,Calm,-,N/A,,Overcast,0,2012-11-26 08:56:00
3:56 AM,24.1,19.0,81,30.17,8.0,Calm,Calm,-,N/A,,Overcast,0,2012-11-26 09:56:00
4:56 AM,27.0,21.0,78,30.19,9.0,West,3.5,-,N/A,,Overcast,260,2012-11-26 10:56:00
5:56 AM,27.0,21.9,81,30.19,8.0,Calm,Calm,-,N/A,,Overcast,0,2012-11-26 11:56:00
6:56 AM,27.0,21.0,78,30.21,8.0,West,4.6,-,N/A,,Overcast,280,2012-11-26 12:56:00
7:56 AM,28.0,21.0,75,30.23,7.0,West,4.6,-,N/A,,Overcast,270,2012-11-26 13:56:00
8:56 AM,28.9,21.9,75,30.25,8.0,West,3.5,-,N/A,,Overcast,260,2012-11-26 14:56:00
9:56 AM,30.0,19.0,64,30.28,10.0,North,11.5,-,N/A,,Overcast,350,2012-11-26 15:56:00
10:56 AM,30.0,16.0,56,30.30,10.0,NW,12.7,18.4,N/A,,Overcast,320,2012-11-26 16:56:00
11:56 AM,30.9,15.1,52,30.31,10.0,NNW,9.2,-,N/A,,Scattered Clouds,330,2012-11-26 17:56:00
12:56 PM,30.0,14.0,51,30.31,10.0,WNW,10.4,17.3,N/A,,Clear,300,2012-11-26 18:56:00
1:56 PM,28.9,8.1,41,30.32,10.0,NNW,8.1,-,N/A,,Clear,330,2012-11-26 19:56:00
2:56 PM,27.0,5.0,39,30.32,10.0,WNW,9.2,-,N/A,,Clear,290,2012-11-26 20:56:00
3:56 PM,26.1,5.0,41,30.34,10.0,NW,9.2,-,N/A,,Clear,310,2012-11-26 21:56:00
4:56 PM,24.1,5.0,44,30.35,10.0,NNW,6.9,-,N/A,,Clear,330,2012-11-26 22:56:00
5:56 PM,23.0,6.1,48,30.38,10.0,NW,5.8,-,N/A,,Clear,310,2012-11-26 23:56:00
6:56 PM,21.0,6.1,53,30.40,10.0,West,3.5,-,N/A,,Clear,280,2012-11-27 00:56:00
7:56 PM,19.0,7.0,59,30.41,10.0,Calm,Calm,-,N/A,,Clear,0,2012-11-27 01:56:00
8:56 PM,16.0,7.0,68,30.41,10.0,Calm,Calm,-,N/A,,Clear,0,2012-11-27 02:56:00
9:56 PM,15.1,6.1,68,30.41,10.0,Calm,Calm,-,N/A,,Clear,0,2012-11-27 03:56:00
10:56 PM,12.9,8.1,81,30.42,10.0,Calm,Calm,-,N/A,,Clear,0,2012-11-27 04:56:00
11:56 PM,12.0,5.0,73,30.41,10.0,Calm,Calm,-,N/A,,Clear,0,2012-11-27 05:56:00